Tracking 27111 objects as of 28-Mar-2023
HD Live streaming from Space Station
objects crossing your sky now

STARLINK-5664

Track STARLINK-5664 now!
10-day predictions
STARLINK-5664 is classified as:


NORAD ID: 55360
Int'l Code: 2023-013AF
Perigee: 565.2 km
Apogee: 567.2 km
Inclination: 43.0 °
Period: 95.8 minutes
Semi major axis: 6937 km
RCS: Unknown
Launch date: January 26, 2023
Source: United States (US)
Launch site: AIR FORCE EASTERN TEST RANGE (AFETR)
Your satellite tracking list
Your tracking list is empty




NASA's NSSDC Master Catalog

Two Line Element Set (TLE):
1 55360U 23013AF  23086.91667824  .00017733  00000-0  13243-2 0  9996
2 55360  43.0020  49.0841 0001426 264.6101 352.8957 15.02540060  1305
Source of the keplerian elements: AFSPC